GMT,Max TemperatureF,Mean TemperatureF,Min TemperatureF,Max Dew PointF,MeanDew PointF,Min DewpointF,Max Humidity, Mean Humidity, Min Humidity, Max Sea Level PressureIn, Mean Sea Level PressureIn, Min Sea Level PressureIn, Max VisibilityMiles, Mean VisibilityMiles, Min VisibilityMiles, Max Wind SpeedMPH, Mean Wind SpeedMPH, Max Gust SpeedMPH,PrecipitationIn, CloudCover, Events, WindDirDegrees
2013-11-1,59,55,51,54,51,48,94,87,78,29.95,29.78,29.56,18,7,4,15,9,14,0.02,3,Rain,195
2013-11-2,60,55,50,52,47,41,94,79,53,29.59,29.48,29.39,19,7,3,26,10,39,0.00,3,Rain,234
2013-11-3,54,50,45,46,41,38,100,73,53,29.59,29.48,29.06,19,6,2,25,17,,0.39,3,Rain,239
2013-11-4,51,46,39,46,39,36,100,79,51,29.51,29.30,29.00,19,6,2,13,9,,0.01,4,Rain,313
2013-11-5,55,47,39,50,43,36,94,81,50,29.50,29.38,29.27,19,7,4,22,9,33,0.08,4,Rain,249
2013-11-6,60,54,48,55,51,42,100,87,69,29.56,29.51,29.47,16,6,1,24,11,32,0.12,5,Rain,227
2013-11-7,52,48,44,55,45,39,94,82,53,29.79,29.72,29.53,19,7,6,18,10,18,0.00,2,Rain,253
2013-11-8,52,46,41,48,43,39,100,92,77,29.78,29.69,29.59,19,7,2,15,6,,0.35,4,Rain,227
2013-11-9,46,42,39,43,40,37,100,92,79,29.78,29.71,29.62,18,7,3,12,7,,0.16,5,Rain,232
2013-11-10,50,44,37,43,38,35,100,82,44,30.28,30.01,29.62,19,6,3,12,6,,0.00,2,Rain,291
2013-11-11,55,44,34,55,48,34,100,96,81,30.27,30.18,30.15,15,6,1,15,7,,0.03,6,Rain,181
2013-11-12,55,47,39,55,47,37,100,90,66,30.54,30.31,30.15,17,6,1,10,6,,0.04,4,Rain,304
2013-11-13,51,42,33,43,39,34,100,85,48,30.58,30.47,30.21,17,8,6,13,5,,0.01,3,,239
2013-11-14,49,45,41,45,40,36,93,79,54,30.42,30.24,30.12,19,8,6,16,12,30,0.00,2,Rain,294
2013-11-15,50,42,35,37,35,32,93,74,49,30.54,30.50,30.42,18,8,6,9,6,,0.00,2,,343
2013-11-16,50,41,32,45,39,32,100,93,69,30.54,30.47,30.39,11,6,3,9,3,,0.00,4,Fog-Rain,292
2013-11-17,49,47,45,46,45,42,100,90,79,30.40,30.24,30.04,10,5,1,6,3,,0.01,7,Rain,31
2013-11-18,49,46,44,48,45,39,100,95,81,30.04,29.85,29.77,11,4,1,10,5,,0.01,6,Rain,287
2013-11-19,43,36,30,39,32,27,100,79,45,30.07,29.95,29.80,19,9,6,12,7,,0.00,1,,307
2013-11-20,45,36,26,43,35,25,100,89,68,30.06,29.64,29.42,19,7,3,18,8,28,0.08,3,Rain-Thunderstorm,267
2013-11-21,46,42,37,39,37,34,100,81,56,29.95,29.67,29.42,19,8,4,16,9,28,0.00,4,Rain,8
2013-11-22,46,42,37,39,35,33,100,78,51,30.18,30.06,29.95,19,8,6,15,8,22,0.00,2,Rain,4
2013-11-23,46,40,35,39,37,35,100,85,59,30.33,30.25,30.18,19,7,6,12,7,,0.00,3,Rain,356
2013-11-24,46,44,39,43,39,35,87,81,63,30.57,30.44,30.33,19,8,6,10,6,,0.00,6,Rain,356
2013-11-25,45,42,39,37,37,35,93,82,59,30.70,30.65,30.57,16,7,6,9,5,,0.00,6,Rain,347
2013-11-26,46,39,32,39,35,30,100,78,47,30.72,30.67,30.60,19,7,5,7,5,,0.00,6,,308
2013-11-27,51,46,42,48,45,38,100,91,77,30.60,30.53,30.48,11,6,4,7,4,,0.00,6,Rain,284
2013-11-28,50,48,46,46,45,44,100,90,74,30.58,30.55,30.54,7,5,3,6,4,,0.00,6,,310
2013-11-29,50,47,42,45,41,36,93,79,52,30.54,30.31,30.18,19,7,4,18,9,,0.01,4,Rain,279
2013-11-30,48,42,35,39,36,32,93,77,60,30.48,30.35,30.21,19,8,6,12,8,,0.00,4,Rain,326